{"data":{"norad_id":68397,"intl_designator":"2026-063T","name":"STARLINK-37194","alt_names":[],"object_type":"PAYLOAD","status":"ACTIVE","operator":null,"country":"US","launch_date":"2026-03-26","launch_site_code":"AFWTR","launch_vehicle":null,"mission":null,"orbit_class":"UNKNOWN","rcs_meters":null,"size_class":null,"mass_kg":null,"dimensions":null,"purposes":["comms"],"wikipedia_slug":null,"has_3d_model":false,"image_url":null,"decayed_at":null,"tle_current":{"epoch":"2026-09-20T03:18:39.870144Z","epoch_age_seconds":78505,"freshness":"FRESH","line1":"1 68397U 26063T   26263.13796146  .00016319  00000+0  50653-3 0  9997","line2":"2 68397  97.2839  44.0106 0000565 247.9588 112.1595 15.33457828 27691","mean_motion":15.33457828,"eccentricity":5.65e-5,"inclination_deg":97.2839,"raan_deg":44.0106,"arg_perigee_deg":247.9588,"mean_anomaly_deg":112.1595,"bstar":0.00050653,"rev_number":2769,"period_min":93.905419093142,"perigee_km":465.11834186804,"apogee_km":465.8916734149,"semimajor_km":6843.6420076415,"source":"CELESTRAK","updated_at":"2026-09-20T09:00:43.897667Z"}}}